Hourly Weather Fuengirola

Today, 30 September, Wednesday

Time Temperature Precipitation Wind Pressure Humidity
00:00 +21°C° 0 mm 2 mps 761 mmHg 63%
01:00 +21°C° 0 mm 2 mps 761 mmHg 63%
02:00 +21°C° 0 mm 2 mps 761 mmHg 63%
03:00 +21°C° 0 mm 2 mps 760 mmHg 63%
04:00 +21°C° 0 mm 2 mps 760 mmHg 62%
05:00 +21°C° 0 mm 2 mps 761 mmHg 61%
06:00 +22°C° 0 mm 1 mps 761 mmHg 60%
07:00 +23°C° 0 mm 1 mps 761 mmHg 56%
08:00 +24°C° 0 mm 1 mps 761 mmHg 52%
09:00 +26°C° 0 mm 1 mps 761 mmHg 49%
10:00 +27°C° 0 mm 1 mps 761 mmHg 45%
11:00 +28°C° 0 mm 1 mps 761 mmHg 42%
12:00 +29°C° 0 mm 1 mps 761 mmHg 39%
13:00 +29°C° 0 mm 1 mps 761 mmHg 40%
14:00 +29°C° 0 mm 1 mps 760 mmHg 42%
15:00 +29°C° 0 mm 1 mps 760 mmHg 44%
16:00 +28°C° 0 mm 2 mps 760 mmHg 49%
17:00 +27°C° 0 mm 2 mps 759 mmHg 55%
18:00 +26°C° 0 mm 2 mps 759 mmHg 60%
19:00 +25°C° 0 mm 2 mps 760 mmHg 59%
20:00 +25°C° 0 mm 2 mps 760 mmHg 57%
21:00 +25°C° 0 mm 2 mps 760 mmHg 56%
22:00 +24°C° 0 mm 3 mps 760 mmHg 56%
23:00 +24°C° 0 mm 3 mps 760 mmHg 56%

Tomorrow, 1 October, Thursday

Time Temperature Precipitation Wind Pressure Humidity
00:00 +23°C° 0 mm 4 mps 760 mmHg 56%
01:00 +22°C° 0 mm 4 mps 759 mmHg 56%
02:00 +22°C° 0 mm 4 mps 759 mmHg 56%
03:00 +22°C° 0 mm 4 mps 759 mmHg 55%
04:00 +22°C° 0 mm 4 mps 759 mmHg 54%
05:00 +21°C° 0 mm 4 mps 759 mmHg 53%
06:00 +21°C° 0 mm 4 mps 759 mmHg 52%
07:00 +23°C° 0 mm 4 mps 759 mmHg 46%
08:00 +26°C° 0 mm 4 mps 759 mmHg 39%
09:00 +28°C° 0 mm 4 mps 759 mmHg 33%
10:00 +29°C° 0 mm 5 mps 759 mmHg 29%
11:00 +32°C° 0 mm 6 mps 758 mmHg 24%
12:00 +33°C° 0 mm 7 mps 758 mmHg 19%
13:00 +33°C° 0 mm 7 mps 758 mmHg 19%
14:00 +34°C° 0 mm 8 mps 757 mmHg 18%
15:00 +34°C° 0 mm 8 mps 757 mmHg 17%
16:00 +32°C° 0 mm 7 mps 756 mmHg 23%
17:00 +29°C° 0 mm 7 mps 756 mmHg 29%
18:00 +27°C° 0 mm 6 mps 756 mmHg 35%
19:00 +26°C° 0 mm 6 mps 757 mmHg 43%
20:00 +24°C° 0 mm 6 mps 757 mmHg 51%
21:00 +23°C° 0 mm 6 mps 757 mmHg 60%
22:00 +23°C° 0 mm 6 mps 757 mmHg 64%
23:00 +22°C° 0 mm 5 mps 757 mmHg 68%

Day after tomorrow, 2 October, Friday

Time Temperature Precipitation Wind Pressure Humidity
00:00 +22°C° 0 mm 5 mps 756 mmHg 72%
01:00 +21°C° 0 mm 5 mps 756 mmHg 74%
02:00 +21°C° 0 mm 5 mps 756 mmHg 76%
03:00 +20°C° 0 mm 5 mps 755 mmHg 78%
04:00 +20°C° 0 mm 5 mps 755 mmHg 77%
05:00 +19°C° 0 mm 5 mps 755 mmHg 76%
06:00 +19°C° 0 mm 6 mps 755 mmHg 75%
07:00 +19°C° 0 mm 6 mps 755 mmHg 71%
08:00 +20°C° 0 mm 6 mps 755 mmHg 66%
09:00 +21°C° 0 mm 6 mps 755 mmHg 61%
10:00 +22°C° 0 mm 7 mps 755 mmHg 58%
11:00 +24°C° 0 mm 8 mps 754 mmHg 55%
12:00 +26°C° 0 mm 9 mps 754 mmHg 51%
13:00 +24°C° 0.3 mm 9 mps 753 mmHg 60%
14:00 +23°C° 0.3 mm 9 mps 752 mmHg 68%
15:00 +22°C° 0.3 mm 9 mps 752 mmHg 76%
16:00 +22°C° 0.5 mm 9 mps 752 mmHg 75%
17:00 +22°C° 0.5 mm 8 mps 752 mmHg 74%
18:00 +22°C° 0.5 mm 8 mps 752 mmHg 74%
19:00 +21°C° 0.1 mm 8 mps 753 mmHg 70%
20:00 +20°C° 0.1 mm 8 mps 754 mmHg 66%
21:00 +18°C° 0.1 mm 8 mps 754 mmHg 63%
22:00 +17°C° 0 mm 8 mps 755 mmHg 61%
23:00 +16°C° 0 mm 8 mps 755 mmHg 60%

3 October, Saturday

Time Temperature Precipitation Wind Pressure Humidity
00:00 +15°C° 0 mm 8 mps 755 mmHg 59%
01:00 +14°C° 0 mm 7 mps 755 mmHg 60%
02:00 +14°C° 0 mm 6 mps 755 mmHg 62%
03:00 +13°C° 0 mm 5 mps 756 mmHg 63%
04:00 +13°C° 0 mm 5 mps 756 mmHg 65%
05:00 +12°C° 0 mm 4 mps 757 mmHg 66%
06:00 +12°C° 0 mm 4 mps 757 mmHg 68%
07:00 +13°C° 0 mm 4 mps 758 mmHg 59%
08:00 +15°C° 0 mm 4 mps 758 mmHg 51%
09:00 +18°C° 0 mm 4 mps 758 mmHg 43%
10:00 +19°C° 0 mm 4 mps 758 mmHg 37%
11:00 +21°C° 0 mm 4 mps 758 mmHg 32%
12:00 +22°C° 0 mm 4 mps 758 mmHg 26%
13:00 +22°C° 0 mm 4 mps 758 mmHg 26%
14:00 +23°C° 0 mm 5 mps 757 mmHg 25%
15:00 +23°C° 0 mm 5 mps 757 mmHg 25%
16:00 +22°C° 0 mm 5 mps 757 mmHg 29%
17:00 +21°C° 0 mm 4 mps 757 mmHg 32%
18:00 +20°C° 0 mm 4 mps 757 mmHg 36%
19:00 +19°C° 0 mm 4 mps 757 mmHg 43%
20:00 +17°C° 0 mm 5 mps 758 mmHg 51%
21:00 +16°C° 0 mm 5 mps 758 mmHg 58%
22:00 +16°C° 0 mm 5 mps 758 mmHg 63%
23:00 +17°C° 0 mm 4 mps 758 mmHg 67%

4 October, Sunday

Time Temperature Precipitation Wind Pressure Humidity
00:00 +17°C° 0 mm 4 mps 758 mmHg 71%
01:00 +15°C° 0 mm 4 mps 758 mmHg 73%
02:00 +15°C° 0 mm 4 mps 757 mmHg 76%
03:00 +15°C° 0 mm 4 mps 757 mmHg 78%
04:00 +15°C° 0 mm 4 mps 757 mmHg 77%
05:00 +14°C° 0 mm 4 mps 757 mmHg 77%
06:00 +14°C° 0 mm 4 mps 757 mmHg 77%
07:00 +16°C° 0 mm 5 mps 757 mmHg 70%
08:00 +17°C° 0 mm 5 mps 758 mmHg 64%
09:00 +20°C° 0 mm 5 mps 758 mmHg 57%
10:00 +21°C° 0 mm 6 mps 758 mmHg 56%
11:00 +22°C° 0 mm 7 mps 758 mmHg 55%
12:00 +23°C° 0 mm 8 mps 757 mmHg 53%
13:00 +24°C° 0 mm 8 mps 757 mmHg 50%
14:00 +24°C° 0 mm 8 mps 757 mmHg 46%
15:00 +26°C° 0 mm 8 mps 757 mmHg 43%
16:00 +24°C° 0 mm 7 mps 757 mmHg 42%
17:00 +23°C° 0 mm 6 mps 757 mmHg 41%
18:00 +22°C° 0 mm 6 mps 757 mmHg 41%
19:00 +21°C° 0 mm 6 mps 758 mmHg 45%
20:00 +21°C° 0 mm 6 mps 758 mmHg 49%
21:00 +20°C° 0 mm 5 mps 759 mmHg 53%
22:00 +19°C° 0 mm 5 mps 759 mmHg 54%
23:00 +17°C° 0 mm 5 mps 759 mmHg 54%

5 October, Monday

Time Temperature Precipitation Wind Pressure Humidity
00:00 +17°C° 0 mm 5 mps 759 mmHg 55%
01:00 +16°C° 0 mm 5 mps 759 mmHg 57%
02:00 +16°C° 0 mm 5 mps 759 mmHg 59%
03:00 +15°C° 0 mm 5 mps 759 mmHg 61%
04:00 +15°C° 0 mm 5 mps 760 mmHg 63%
05:00 +14°C° 0 mm 5 mps 760 mmHg 66%
06:00 +14°C° 0 mm 4 mps 760 mmHg 68%
07:00 +15°C° 0 mm 5 mps 761 mmHg 62%
08:00 +17°C° 0 mm 5 mps 761 mmHg 56%
09:00 +19°C° 0 mm 5 mps 761 mmHg 50%
10:00 +21°C° 0 mm 5 mps 761 mmHg 44%
11:00 +22°C° 0 mm 4 mps 761 mmHg 38%
12:00 +25°C° 0 mm 4 mps 761 mmHg 32%
13:00 +25°C° 0 mm 5 mps 761 mmHg 33%
14:00 +25°C° 0 mm 5 mps 760 mmHg 33%
15:00 +25°C° 0 mm 5 mps 760 mmHg 33%
16:00 +25°C° 0 mm 5 mps 760 mmHg 36%
17:00 +23°C° 0 mm 5 mps 760 mmHg 38%
18:00 +22°C° 0 mm 4 mps 761 mmHg 41%
19:00 +21°C° 0 mm 5 mps 761 mmHg 44%
20:00 +20°C° 0 mm 5 mps 761 mmHg 47%
21:00 +20°C° 0 mm 5 mps 762 mmHg 50%
22:00 +19°C° 0 mm 5 mps 762 mmHg 52%
23:00 +19°C° 0 mm 4 mps 762 mmHg 54%
Show more